Location: ???????
(55.4362°N, 38.1183°E)
Time: 23:46:52
(UTC+00:00)

Cosmos 2237 Rocket - Pass Details

Date: 17 June 2021
Orbit: 834 x 850 km, 71.0° (Epoch: 05 August)

Event Time Altitude Azimuth Distance (km) Brightness Sun altitude
Exits shadow 21:26:42 10° 210° (SSW) 2,436 4.1 -11.2°
Maximum altitude 21:32:18 87° 122° (ESE) 845 2.2 -11.2°
Drops below altitude 10° 21:37:57 10° 35° (NE) 2,459 5.6 -11.1°
Sets 21:40:24 0° 35° (NE) 3,398 6.4 -11.1°
